Other Surface Observations
Issued by NWS

Home | Current Version | Previous Version | Text Only | Print | Product List | Glossary On
Versions: 1 2 3 4 5 6 7 8 9 10 11 12 13 14 15 16 17 18 19 20 21 22 23 24 25 26 27 28 29 30 31 32 33 34 35 36 37 38 39 40 41 42 43 44 45 46 47 48 49 50
000
SXUS52 KTAE 050705
OSOTAE
OSOTAE
North Florida/South Alabama/Southwest Georgia Weather Roundup
National Weather Service Tallahassee Florida
300 AM EDT SUN JUL 05 2015

Note: "fair" indicates few or no clouds below 12,000 feet with no
significant weather and/or obstructions to visibility.

!FLZ017-115-028-034-025-050800
...North Florida...

CITY           SKY/WX    TMP DP  RH WIND       PRES   REMARKS
TALLAHASSEE    CLEAR     74  71  91 CALM      30.09F
APALACHICOLA   CLEAR     83  75  77 S6        30.07F HX  90
PERRY            N/A     74  74 100 CALM      30.11S
CROSS CITY       N/A     74  71  91 CALM      30.10F
JACKSONVILLE   MOCLDY    70  70 100 CALM      30.11F FOG
$$

!FLZ112-006-005-002-011-050800
...Florida Panhandle...

CITY           SKY/WX    TMP DP  RH WIND       PRES   REMARKS
MARIANNA       CLEAR     71  71 100 CALM      30.10F
BONIFAY        NOT AVBL
PANAMA CITY NW FAIR      72  70  93 CALM      30.08F
TYNDALL AFB    CLEAR     76  72  89 CALM      30.09S
TYND DRONE APT FAIR      75  73  94 N3        30.08F
DE FUNIAK SPR  FAIR      70  70  99 CALM      30.10F
EGLIN AFB      CLOUDY    73  69  90 CALM      30.09S
DESTIN         PTCLDY    77  73  87 CALM      30.09S
HURLBURT       MOCLDY    73  69  87 CALM      30.08S
CRESTVIEW      MOCLDY    70  69  97 CALM      30.10F FOG
PENSACOLA      CLOUDY    75  72  90 E3        30.08F
$$

!ALZ063-066-050800
...South Alabama...

CITY           SKY/WX    TMP DP  RH WIND       PRES   REMARKS
DOTHAN         MOCLDY    70  69  97 S3          N/A
OZARK CAIRNS   MOCLDY    70  69  99 SW1       30.10S
FT RUCKER HELI MOCLDY    71  68  90 CALM      30.09F
RUCKER HELI 3  MOCLDY    70  68  93 S3        30.11F
RUCKER HELI 2  FAIR      69  69 100 CALM      30.10S
FLORALA APT    CLOUDY    71  68  90 CALM      30.11F
ANDALUSIA      CLOUDY    74  69  85 CALM      30.10F
TROY           MOCLDY    70  69  97 SW3       30.11S
EUFALA         CLOUDY    72  71  97 SW3       30.09F
MOBILE         CLOUDY    74  72  93 CALM      30.09F FOG
$$

!GAZ120>161-050800
...Southwest and South Central Georgia...

CITY           SKY/WX    TMP DP  RH WIND       PRES   REMARKS
THOMASVILLE    FAIR      70  70 100 CALM      30.11F FOG
BAINBRIDGE     CLEAR     73  72  94 CALM      30.10F
MOODY AFB      PTCLDY    71  69  91 S1        30.09F
VALDOSTA       CLEAR     72  71  97 S5        30.10F
MOULTRIE       CLEAR     72  70  94 CALM      30.11F
BLAKELY        PTCLDY    70  70 100 CALM      30.10F
ALBANY         CLEAR     70  68  93 S5        30.12F
TIFTON         FAIR      71  71  99 CALM      30.10F
FITZGERALD     FAIR      73  72  96 CALM      30.13S
CORDELE        FAIR      72  70  95 W5        30.11S
AMERICUS       FAIR      68  68 100 S3        30.12S
HOMERVILLE     FAIR      72  72 100 CALM      30.11F
$$

!GMZ750-755-770-775-050800
...Coastal and Buoy Obs...

STATION/POSITION TIME  TEMP    WIND        PRES    VSBY  WAVE
                       AIR SEA DIR/SP/G                  HT/PER
                 (UTC) (F)     (DEG/KT/KT) (MB)    (MI)  (FT/S)
KEATON BEACH     0700   76     110/  7/  8 1019.3F
CEDAR KEY        0600   84     180/  9/ 10 1020.4F
C TOWER          0700   82     180/  6/  6 1018.6F
APALACHICOLA BUO 0650   84 86  160/  2/  4 1019.4F         1/ 4
PANAMA CITY BUOY 0650   84 85  170/  8/ 12 1019.0S         2/ 5
MOBILE BUOY      0650   83 86  170/ 10/ 12 1018.8F         2/ 4
ORANGE BCH AL BU 0650   82 83  220/  6/  8 1017.9F         1/ 4
$$



USA.gov is the U.S. government's official web portal to all federal, state and local government web resources and services.